Year,Month,Day,Hour,Minute,Value (Times are PST for temperature in C)
2015,03,08,00,00,5.90
2015,03,08,00,01,5.90
2015,03,08,00,02,5.90
2015,03,08,00,03,5.90
2015,03,08,00,04,5.90
2015,03,08,00,05,5.90
2015,03,08,00,06,5.90
2015,03,08,00,07,5.90
2015,03,08,00,08,5.90
2015,03,08,00,09,5.90
2015,03,08,00,10,5.90
2015,03,08,00,11,5.90
2015,03,08,00,12,5.90
2015,03,08,00,13,5.90
2015,03,08,00,14,5.90
2015,03,08,00,15,5.90
2015,03,08,00,16,5.90
2015,03,08,00,17,5.90
2015,03,08,00,18,5.90
2015,03,08,00,19,5.90
2015,03,08,00,20,5.80
2015,03,08,00,21,5.90
2015,03,08,00,22,5.90
2015,03,08,00,23,5.90
2015,03,08,00,24,5.90
2015,03,08,00,25,5.90
2015,03,08,00,26,5.90
2015,03,08,00,27,5.90
2015,03,08,00,28,5.80
2015,03,08,00,29,5.80
2015,03,08,00,30,5.70
2015,03,08,00,31,5.70
2015,03,08,00,32,5.60
2015,03,08,00,33,5.60
2015,03,08,00,34,5.60
2015,03,08,00,35,5.60
2015,03,08,00,36,5.50
2015,03,08,00,37,5.50
2015,03,08,00,38,5.40
2015,03,08,00,39,5.50
2015,03,08,00,40,5.60
2015,03,08,00,41,5.70
2015,03,08,00,42,5.70
2015,03,08,00,43,5.70
2015,03,08,00,44,5.70
2015,03,08,00,45,5.70
2015,03,08,00,46,5.70
2015,03,08,00,47,5.70
2015,03,08,00,48,5.60
2015,03,08,00,49,5.60
2015,03,08,00,50,5.60
2015,03,08,00,51,5.70
2015,03,08,00,52,5.70
2015,03,08,00,53,5.80
2015,03,08,00,54,5.80
2015,03,08,00,55,5.80
2015,03,08,00,56,5.80
2015,03,08,00,57,5.90
2015,03,08,00,58,5.90
2015,03,08,00,59,5.90
2015,03,08,01,00,5.90
2015,03,08,01,01,5.90
2015,03,08,01,02,5.90
2015,03,08,01,03,5.90
2015,03,08,01,04,5.90
2015,03,08,01,05,5.90
2015,03,08,01,06,5.90
2015,03,08,01,07,6.00
2015,03,08,01,08,6.00
2015,03,08,01,09,6.00
2015,03,08,01,10,6.10
2015,03,08,01,11,6.10
2015,03,08,01,12,6.10
2015,03,08,01,13,6.10
2015,03,08,01,14,6.10
2015,03,08,01,15,6.10
2015,03,08,01,16,6.10
2015,03,08,01,17,6.10
2015,03,08,01,18,6.10
2015,03,08,01,19,6.10
2015,03,08,01,20,6.10
2015,03,08,01,21,6.10
2015,03,08,01,22,6.20
2015,03,08,01,23,6.20
2015,03,08,01,24,6.10
2015,03,08,01,25,6.10
2015,03,08,01,26,6.10
2015,03,08,01,27,6.10
2015,03,08,01,28,6.10
2015,03,08,01,29,6.10
2015,03,08,01,30,6.10
2015,03,08,01,31,6.10
2015,03,08,01,32,6.00
2015,03,08,01,33,6.00
2015,03,08,01,34,5.90
2015,03,08,01,35,5.80
2015,03,08,01,36,5.70
2015,03,08,01,37,5.70
2015,03,08,01,38,5.70
2015,03,08,01,39,5.70
2015,03,08,01,40,5.60
2015,03,08,01,41,5.60
2015,03,08,01,42,5.60
2015,03,08,01,43,5.60
2015,03,08,01,44,5.60
2015,03,08,01,45,5.60
2015,03,08,01,46,5.60
2015,03,08,01,47,5.60
2015,03,08,01,48,5.60
2015,03,08,01,49,5.50
2015,03,08,01,50,5.50
2015,03,08,01,51,5.40
2015,03,08,01,52,5.40
2015,03,08,01,53,5.30
2015,03,08,01,54,5.30
2015,03,08,01,55,5.20
2015,03,08,01,56,5.20
2015,03,08,01,57,5.20
2015,03,08,01,58,5.20
2015,03,08,01,59,5.20
2015,03,08,03,00,5.30
2015,03,08,03,01,5.40
2015,03,08,03,02,5.40
2015,03,08,03,03,5.50
2015,03,08,03,04,5.60
2015,03,08,03,05,5.70
2015,03,08,03,06,5.80
2015,03,08,03,07,5.90
2015,03,08,03,08,5.90
2015,03,08,03,09,5.90
2015,03,08,03,10,5.90
2015,03,08,03,11,5.90
2015,03,08,03,12,5.90
2015,03,08,03,13,5.80
2015,03,08,03,14,5.70
2015,03,08,03,15,5.50
2015,03,08,03,16,5.40
2015,03,08,03,17,5.30
2015,03,08,03,18,5.10
2015,03,08,03,19,5.00
2015,03,08,03,20,4.90
2015,03,08,03,21,4.90
2015,03,08,03,22,4.80
2015,03,08,03,23,4.80
2015,03,08,03,24,4.90
2015,03,08,03,25,4.90
2015,03,08,03,26,4.90
2015,03,08,03,27,5.00
2015,03,08,03,28,5.10
2015,03,08,03,29,5.10
2015,03,08,03,30,5.20
2015,03,08,03,31,5.30
2015,03,08,03,32,5.30
2015,03,08,03,33,5.30
2015,03,08,03,34,5.30
2015,03,08,03,35,5.30
2015,03,08,03,36,5.30
2015,03,08,03,37,5.40
2015,03,08,03,38,5.40
2015,03,08,03,39,5.40
2015,03,08,03,40,5.50
2015,03,08,03,41,5.60
2015,03,08,03,42,5.60
2015,03,08,03,43,5.70
2015,03,08,03,44,5.70
2015,03,08,03,45,5.70
2015,03,08,03,46,5.70
2015,03,08,03,47,5.70
2015,03,08,03,48,5.60
2015,03,08,03,49,5.60
2015,03,08,03,50,5.70
2015,03,08,03,51,5.70
2015,03,08,03,52,5.70
2015,03,08,03,53,5.60
2015,03,08,03,54,5.40
2015,03,08,03,55,5.30
2015,03,08,03,56,5.30
2015,03,08,03,57,5.30
2015,03,08,03,58,5.30
2015,03,08,03,59,5.30
2015,03,08,04,00,5.30
2015,03,08,04,01,5.30
2015,03,08,04,02,5.30
2015,03,08,04,03,5.30
2015,03,08,04,04,5.30
2015,03,08,04,05,5.30
2015,03,08,04,06,5.30
2015,03,08,04,07,5.30
2015,03,08,04,08,5.30
2015,03,08,04,09,5.40
2015,03,08,04,10,5.40
2015,03,08,04,11,5.50
2015,03,08,04,12,5.50
2015,03,08,04,13,5.50
2015,03,08,04,14,5.50
2015,03,08,04,15,5.50
2015,03,08,04,16,5.50
2015,03,08,04,17,5.50
2015,03,08,04,18,5.50
2015,03,08,04,19,5.40
2015,03,08,04,20,5.30
2015,03,08,04,21,5.20
2015,03,08,04,22,5.20
2015,03,08,04,23,5.30
2015,03,08,04,24,5.40
2015,03,08,04,25,5.50
2015,03,08,04,26,5.50
2015,03,08,04,27,5.50
2015,03,08,04,28,5.50
2015,03,08,04,29,5.50
2015,03,08,04,30,5.50
2015,03,08,04,31,5.50
2015,03,08,04,32,5.50
2015,03,08,04,33,5.50
2015,03,08,04,34,5.40
2015,03,08,04,35,5.30
2015,03,08,04,36,5.30
2015,03,08,04,37,5.20
2015,03,08,04,38,5.10
2015,03,08,04,39,5.00
2015,03,08,04,40,5.00
2015,03,08,04,41,4.90
2015,03,08,04,42,4.90
2015,03,08,04,43,4.90
2015,03,08,04,44,4.90
2015,03,08,04,45,4.90
2015,03,08,04,46,4.90
2015,03,08,04,47,4.90
2015,03,08,04,48,4.90
2015,03,08,04,49,5.00
2015,03,08,04,50,5.00
2015,03,08,04,51,5.10
2015,03,08,04,52,5.00
2015,03,08,04,53,5.00
2015,03,08,04,54,5.00
2015,03,08,04,55,5.10
2015,03,08,04,56,5.10
2015,03,08,04,57,5.00
2015,03,08,04,58,5.00
2015,03,08,04,59,4.90
2015,03,08,05,00,4.90
2015,03,08,05,01,4.80
2015,03,08,05,02,4.80
2015,03,08,05,03,4.80
2015,03,08,05,04,4.80
2015,03,08,05,05,4.80
2015,03,08,05,06,4.70
2015,03,08,05,07,4.70
2015,03,08,05,08,4.70
2015,03,08,05,09,4.70
2015,03,08,05,10,4.60
2015,03,08,05,11,4.60
2015,03,08,05,12,4.50
2015,03,08,05,13,4.40
2015,03,08,05,14,4.40
2015,03,08,05,15,4.40
2015,03,08,05,16,4.40
2015,03,08,05,17,4.40
2015,03,08,05,18,4.40
2015,03,08,05,19,4.40
2015,03,08,05,20,4.40
2015,03,08,05,21,4.30
2015,03,08,05,22,4.30
2015,03,08,05,23,4.30
2015,03,08,05,24,4.40
2015,03,08,05,25,4.40
2015,03,08,05,26,4.40
2015,03,08,05,27,4.40
2015,03,08,05,28,4.40
2015,03,08,05,29,4.40
2015,03,08,05,30,4.40
2015,03,08,05,31,4.30
2015,03,08,05,32,4.30
2015,03,08,05,33,4.30
2015,03,08,05,34,4.30
2015,03,08,05,35,4.30
2015,03,08,05,36,4.30
2015,03,08,05,37,4.30
2015,03,08,05,38,4.30
2015,03,08,05,39,4.20
2015,03,08,05,40,4.20
2015,03,08,05,41,4.20
2015,03,08,05,42,4.20
2015,03,08,05,43,4.10
2015,03,08,05,44,4.10
2015,03,08,05,45,4.10
2015,03,08,05,46,4.10
2015,03,08,05,47,4.10
2015,03,08,05,48,4.20
2015,03,08,05,49,4.20
2015,03,08,05,50,4.20
2015,03,08,05,51,4.20
2015,03,08,05,52,4.20
2015,03,08,05,53,4.10
2015,03,08,05,54,4.10
2015,03,08,05,55,4.10
2015,03,08,05,56,4.00
2015,03,08,05,57,4.00
2015,03,08,05,58,4.00
2015,03,08,05,59,4.00
2015,03,08,06,00,3.90
2015,03,08,06,01,3.90
2015,03,08,06,02,3.90
2015,03,08,06,03,3.90
2015,03,08,06,04,3.90
2015,03,08,06,05,3.90
2015,03,08,06,06,3.90
2015,03,08,06,07,3.90
2015,03,08,06,08,4.00
2015,03,08,06,09,4.00
2015,03,08,06,10,4.00
2015,03,08,06,11,4.00
2015,03,08,06,12,4.00
2015,03,08,06,13,4.00
2015,03,08,06,14,3.90
2015,03,08,06,15,3.90
2015,03,08,06,16,3.90
2015,03,08,06,17,3.90
2015,03,08,06,18,3.90
2015,03,08,06,19,3.90
2015,03,08,06,20,3.90
2015,03,08,06,21,3.90
2015,03,08,06,22,4.00
2015,03,08,06,23,4.00
2015,03,08,06,24,4.00
2015,03,08,06,25,4.00
2015,03,08,06,26,4.00
2015,03,08,06,27,4.00
2015,03,08,06,28,4.00
2015,03,08,06,29,3.90
2015,03,08,06,30,3.90
2015,03,08,06,31,3.90
2015,03,08,06,32,3.80
2015,03,08,06,33,3.80
2015,03,08,06,34,3.80
2015,03,08,06,35,3.80
2015,03,08,06,36,3.80
2015,03,08,06,37,3.80
2015,03,08,06,38,3.80
2015,03,08,06,39,3.90
2015,03,08,06,40,4.00
2015,03,08,06,41,4.00
2015,03,08,06,42,4.10
2015,03,08,06,43,4.10
2015,03,08,06,44,4.10
2015,03,08,06,45,4.10
2015,03,08,06,46,4.10
2015,03,08,06,47,4.20
2015,03,08,06,48,4.20
2015,03,08,06,49,4.30
2015,03,08,06,50,4.30
2015,03,08,06,51,4.30
2015,03,08,06,52,4.30
2015,03,08,06,53,4.30
2015,03,08,06,54,4.30
2015,03,08,06,55,4.30
2015,03,08,06,56,4.30
2015,03,08,06,57,4.30
2015,03,08,06,58,4.30
2015,03,08,06,59,4.30
2015,03,08,07,00,4.30
2015,03,08,07,01,4.20
2015,03,08,07,02,4.20
2015,03,08,07,03,4.20
2015,03,08,07,04,4.10
2015,03,08,07,05,4.10
2015,03,08,07,06,4.10
2015,03,08,07,07,4.10
2015,03,08,07,08,4.10
2015,03,08,07,09,4.10
2015,03,08,07,10,4.10
2015,03,08,07,11,4.10
2015,03,08,07,12,4.10
2015,03,08,07,13,4.10
2015,03,08,07,14,4.00
2015,03,08,07,15,4.00
2015,03,08,07,16,3.90
2015,03,08,07,17,3.90
2015,03,08,07,18,3.80
2015,03,08,07,19,3.80
2015,03,08,07,20,3.70
2015,03,08,07,21,3.70
2015,03,08,07,22,3.70
2015,03,08,07,23,3.60
2015,03,08,07,24,3.60
2015,03,08,07,25,3.60
2015,03,08,07,26,3.70
2015,03,08,07,27,3.70
2015,03,08,07,28,3.60
2015,03,08,07,29,3.60
2015,03,08,07,30,3.60
2015,03,08,07,31,3.60
2015,03,08,07,32,3.60
2015,03,08,07,33,3.60
2015,03,08,07,34,3.60
2015,03,08,07,35,3.60
2015,03,08,07,36,3.60
2015,03,08,07,37,3.60
2015,03,08,07,38,3.60
2015,03,08,07,39,3.60
2015,03,08,07,40,3.70
2015,03,08,07,41,3.70
2015,03,08,07,42,3.70
2015,03,08,07,43,3.70
2015,03,08,07,44,3.70
2015,03,08,07,45,3.70
2015,03,08,07,46,3.70
2015,03,08,07,47,3.70
2015,03,08,07,48,3.70
2015,03,08,07,49,3.70
2015,03,08,07,50,3.70
2015,03,08,07,51,3.80
2015,03,08,07,52,3.90
2015,03,08,07,53,3.90
2015,03,08,07,54,3.90
2015,03,08,07,55,3.90
2015,03,08,07,56,3.90
2015,03,08,07,57,3.90
2015,03,08,07,58,3.90
2015,03,08,07,59,3.90
2015,03,08,08,00,4.00
2015,03,08,08,01,4.00
2015,03,08,08,02,4.00
2015,03,08,08,03,4.00
2015,03,08,08,04,4.00
2015,03,08,08,05,4.00
2015,03,08,08,06,4.00
2015,03,08,08,07,4.00
2015,03,08,08,08,4.00
2015,03,08,08,09,3.90
2015,03,08,08,10,3.90
2015,03,08,08,11,3.90
2015,03,08,08,12,3.80
2015,03,08,08,13,3.80
2015,03,08,08,14,3.90
2015,03,08,08,15,3.80
2015,03,08,08,16,3.80
2015,03,08,08,17,3.80
2015,03,08,08,18,3.70
2015,03,08,08,19,3.70
2015,03,08,08,20,3.70
2015,03,08,08,21,3.70
2015,03,08,08,22,3.80
2015,03,08,08,23,3.80
2015,03,08,08,24,3.90
2015,03,08,08,25,4.00
2015,03,08,08,26,4.10
2015,03,08,08,27,4.20
2015,03,08,08,28,4.30
2015,03,08,08,29,4.30
2015,03,08,08,30,4.40
2015,03,08,08,31,4.40
2015,03,08,08,32,4.50
2015,03,08,08,33,4.50
2015,03,08,08,34,4.50
2015,03,08,08,35,4.50
2015,03,08,08,36,4.50
2015,03,08,08,37,4.50
2015,03,08,08,38,4.60
2015,03,08,08,39,4.60
2015,03,08,08,40,4.60
2015,03,08,08,41,4.60
2015,03,08,08,42,4.60
2015,03,08,08,43,4.60
2015,03,08,08,44,4.60
2015,03,08,08,45,4.60
2015,03,08,08,46,4.50
2015,03,08,08,47,4.60
2015,03,08,08,48,4.60
2015,03,08,08,49,4.60
2015,03,08,08,50,4.60
2015,03,08,08,51,4.60
2015,03,08,08,52,4.60
2015,03,08,08,53,4.60
2015,03,08,08,54,4.60
2015,03,08,08,55,4.60
2015,03,08,08,56,4.60
2015,03,08,08,57,4.60
2015,03,08,08,58,4.70
2015,03,08,08,59,4.70
2015,03,08,09,00,4.70
2015,03,08,09,01,4.80
2015,03,08,09,02,4.80
2015,03,08,09,03,4.80
2015,03,08,09,04,4.80
2015,03,08,09,05,4.80
2015,03,08,09,06,4.90
2015,03,08,09,07,4.90
2015,03,08,09,08,5.00
2015,03,08,09,09,5.00
2015,03,08,09,10,5.10
2015,03,08,09,11,5.10
2015,03,08,09,12,5.10
2015,03,08,09,13,5.10
2015,03,08,09,14,5.20
2015,03,08,09,15,5.20
2015,03,08,09,16,5.20
2015,03,08,09,17,5.20
2015,03,08,09,18,5.30
2015,03,08,09,19,5.30
2015,03,08,09,20,5.30
2015,03,08,09,21,5.30
2015,03,08,09,22,5.40
2015,03,08,09,23,5.40
2015,03,08,09,24,5.50
2015,03,08,09,25,5.50
2015,03,08,09,26,5.60
2015,03,08,09,27,5.60
2015,03,08,09,28,5.70
2015,03,08,09,29,5.80
2015,03,08,09,30,5.80
2015,03,08,09,31,5.90
2015,03,08,09,32,6.00
2015,03,08,09,33,6.10
2015,03,08,09,34,6.10
2015,03,08,09,35,6.20
2015,03,08,09,36,6.20
2015,03,08,09,37,6.20
2015,03,08,09,38,6.30
2015,03,08,09,39,6.30
2015,03,08,09,40,6.30
2015,03,08,09,41,6.30
2015,03,08,09,42,6.40
2015,03,08,09,43,6.40
2015,03,08,09,44,6.50
2015,03,08,09,45,6.50
2015,03,08,09,46,6.60
2015,03,08,09,47,6.60
2015,03,08,09,48,6.70
2015,03,08,09,49,6.70
2015,03,08,09,50,6.70
2015,03,08,09,51,6.80
2015,03,08,09,52,6.80
2015,03,08,09,53,6.80
2015,03,08,09,54,6.90
2015,03,08,09,55,6.90
2015,03,08,09,56,7.00
2015,03,08,09,57,7.20
2015,03,08,09,58,7.30
2015,03,08,09,59,7.30
2015,03,08,10,00,7.40
2015,03,08,10,01,7.40
2015,03,08,10,02,7.50
2015,03,08,10,03,7.50
2015,03,08,10,04,7.50
2015,03,08,10,05,7.60
2015,03,08,10,06,7.60
2015,03,08,10,07,7.60
2015,03,08,10,08,7.60
2015,03,08,10,09,7.60
2015,03,08,10,10,7.70
2015,03,08,10,11,7.70
2015,03,08,10,12,7.80
2015,03,08,10,13,7.80
2015,03,08,10,14,7.90
2015,03,08,10,15,8.00
2015,03,08,10,16,8.00
2015,03,08,10,17,8.10
2015,03,08,10,18,8.10
2015,03,08,10,19,8.20
2015,03,08,10,20,8.30
2015,03,08,10,21,8.30
2015,03,08,10,22,8.30
2015,03,08,10,23,8.40
2015,03,08,10,24,8.40
2015,03,08,10,25,8.50
2015,03,08,10,26,8.50
2015,03,08,10,27,8.50
2015,03,08,10,28,8.50
2015,03,08,10,29,8.50
2015,03,08,10,30,8.50
2015,03,08,10,31,8.60
2015,03,08,10,32,8.60
2015,03,08,10,33,8.60
2015,03,08,10,34,8.60
2015,03,08,10,35,8.60
2015,03,08,10,36,8.60
2015,03,08,10,37,8.70
2015,03,08,10,38,8.70
2015,03,08,10,39,8.70
2015,03,08,10,40,8.80
2015,03,08,10,41,8.80
2015,03,08,10,42,8.80
2015,03,08,10,43,8.80
2015,03,08,10,44,8.90
2015,03,08,10,45,8.90
2015,03,08,10,46,8.90
2015,03,08,10,47,8.90
2015,03,08,10,48,8.90
2015,03,08,10,49,8.90
2015,03,08,10,50,8.90
2015,03,08,10,51,8.90
2015,03,08,10,52,8.90
2015,03,08,10,53,8.90
2015,03,08,10,54,9.00
2015,03,08,10,55,9.10
2015,03,08,10,56,9.10
2015,03,08,10,57,9.20
2015,03,08,10,58,9.10
2015,03,08,10,59,9.10
2015,03,08,11,00,9.10
2015,03,08,11,01,9.10
2015,03,08,11,02,9.20
2015,03,08,11,03,9.20
2015,03,08,11,04,9.10
2015,03,08,11,05,9.10
2015,03,08,11,06,9.10
2015,03,08,11,07,9.10
2015,03,08,11,08,9.10
2015,03,08,11,09,9.10
2015,03,08,11,10,9.10
2015,03,08,11,11,9.00
2015,03,08,11,12,9.00
2015,03,08,11,13,9.00
2015,03,08,11,14,9.00
2015,03,08,11,15,9.00
2015,03,08,11,16,9.00
2015,03,08,11,17,9.00
2015,03,08,11,18,9.00
2015,03,08,11,19,9.00
2015,03,08,11,20,9.00
2015,03,08,11,21,8.90
2015,03,08,11,22,8.90
2015,03,08,11,23,8.90
2015,03,08,11,24,8.90
2015,03,08,11,25,8.90
2015,03,08,11,26,8.90
2015,03,08,11,27,8.90
2015,03,08,11,28,8.90
2015,03,08,11,29,9.00
2015,03,08,11,30,9.10
2015,03,08,11,31,9.10
2015,03,08,11,32,9.20
2015,03,08,11,33,9.20
2015,03,08,11,34,9.10
2015,03,08,11,35,9.10
2015,03,08,11,36,9.10
2015,03,08,11,37,9.10
2015,03,08,11,38,9.10
2015,03,08,11,39,9.10
2015,03,08,11,40,9.10
2015,03,08,11,41,9.00
2015,03,08,11,42,9.00
2015,03,08,11,43,8.90
2015,03,08,11,44,8.90
2015,03,08,11,45,8.80
2015,03,08,11,46,8.80
2015,03,08,11,47,8.80
2015,03,08,11,48,8.80
2015,03,08,11,49,8.80
2015,03,08,11,50,8.80
2015,03,08,11,51,8.80
2015,03,08,11,52,8.80
2015,03,08,11,53,8.90
2015,03,08,11,54,8.90
2015,03,08,11,55,8.90
2015,03,08,11,56,8.90
2015,03,08,11,57,8.90
2015,03,08,11,58,8.80
2015,03,08,11,59,8.80
2015,03,08,12,00,8.80
2015,03,08,12,01,8.80
2015,03,08,12,02,8.80
2015,03,08,12,03,8.80
2015,03,08,12,04,8.90
2015,03,08,12,05,8.90
2015,03,08,12,06,9.10
2015,03,08,12,07,9.20
2015,03,08,12,08,9.20
2015,03,08,12,09,9.20
2015,03,08,12,10,9.30
2015,03,08,12,11,9.30
2015,03,08,12,12,9.40
2015,03,08,12,13,9.50
2015,03,08,12,14,9.50
2015,03,08,12,15,9.50
2015,03,08,12,16,9.50
2015,03,08,12,17,9.50
2015,03,08,12,18,9.50
2015,03,08,12,19,9.50
2015,03,08,12,20,9.60
2015,03,08,12,21,9.70
2015,03,08,12,22,9.80
2015,03,08,12,23,9.80
2015,03,08,12,24,9.80
2015,03,08,12,25,9.80
2015,03,08,12,26,9.70
2015,03,08,12,27,9.70
2015,03,08,12,28,9.70
2015,03,08,12,29,9.70
2015,03,08,12,30,9.80
2015,03,08,12,31,9.90
2015,03,08,12,32,10.10
2015,03,08,12,33,10.20
2015,03,08,12,34,10.20
2015,03,08,12,35,10.20
2015,03,08,12,36,10.20
2015,03,08,12,37,10.10
2015,03,08,12,38,10.10
2015,03,08,12,39,10.10
2015,03,08,12,40,10.10
2015,03,08,12,41,10.10
2015,03,08,12,42,10.10
2015,03,08,12,43,10.20
2015,03,08,12,44,10.20
2015,03,08,12,45,10.30
2015,03,08,12,46,10.30
2015,03,08,12,47,10.30
2015,03,08,12,48,10.30
2015,03,08,12,49,10.30
2015,03,08,12,50,10.40
2015,03,08,12,51,10.40
2015,03,08,12,52,10.40
2015,03,08,12,53,10.50
2015,03,08,12,54,10.50
2015,03,08,12,55,10.50
2015,03,08,12,56,10.50
2015,03,08,12,57,10.50
2015,03,08,12,58,10.60
2015,03,08,12,59,10.70
2015,03,08,13,00,10.80
2015,03,08,13,01,10.80
2015,03,08,13,02,10.90
2015,03,08,13,03,10.90
2015,03,08,13,04,11.00
2015,03,08,13,05,11.10
2015,03,08,13,06,11.10
2015,03,08,13,07,11.20
2015,03,08,13,08,11.20
2015,03,08,13,09,11.30
2015,03,08,13,10,11.30
2015,03,08,13,11,11.50
2015,03,08,13,12,11.50
2015,03,08,13,13,11.50
2015,03,08,13,14,11.40
2015,03,08,13,15,11.30
2015,03,08,13,16,11.20
2015,03,08,13,17,11.20
2015,03,08,13,18,11.10
2015,03,08,13,19,11.10
2015,03,08,13,20,11.10
2015,03,08,13,21,11.20
2015,03,08,13,22,11.20
2015,03,08,13,23,11.20
2015,03,08,13,24,11.20
2015,03,08,13,25,11.30
2015,03,08,13,26,11.30
2015,03,08,13,27,11.30
2015,03,08,13,28,11.30
2015,03,08,13,29,11.30
2015,03,08,13,30,11.30
2015,03,08,13,31,11.30
2015,03,08,13,32,11.30
2015,03,08,13,33,11.30
2015,03,08,13,34,11.30
2015,03,08,13,35,11.20
2015,03,08,13,36,11.20
2015,03,08,13,37,11.10
2015,03,08,13,38,11.10
2015,03,08,13,39,11.10
2015,03,08,13,40,11.10
2015,03,08,13,41,11.10
2015,03,08,13,42,11.20
2015,03,08,13,43,11.30
2015,03,08,13,44,11.40
2015,03,08,13,45,11.50
2015,03,08,13,46,11.60
2015,03,08,13,47,11.70
2015,03,08,13,48,11.80
2015,03,08,13,49,11.80
2015,03,08,13,50,11.80
2015,03,08,13,51,11.80
2015,03,08,13,52,11.70
2015,03,08,13,53,11.70
2015,03,08,13,54,11.70
2015,03,08,13,55,11.70
2015,03,08,13,56,11.70
2015,03,08,13,57,11.70
2015,03,08,13,58,11.80
2015,03,08,13,59,11.70
2015,03,08,14,00,11.70
2015,03,08,14,01,11.70
2015,03,08,14,02,11.80
2015,03,08,14,03,11.80
2015,03,08,14,04,11.80
2015,03,08,14,05,11.80
2015,03,08,14,06,11.80
2015,03,08,14,07,11.80
2015,03,08,14,08,11.70
2015,03,08,14,09,11.70
2015,03,08,14,10,11.70
2015,03,08,14,11,11.70
2015,03,08,14,12,11.80
2015,03,08,14,13,11.80
2015,03,08,14,14,11.90
2015,03,08,14,15,12.00
2015,03,08,14,16,12.00
2015,03,08,14,17,12.00
2015,03,08,14,18,11.90
2015,03,08,14,19,11.90
2015,03,08,14,20,12.00
2015,03,08,14,21,12.00
2015,03,08,14,22,12.00
2015,03,08,14,23,12.10
2015,03,08,14,24,12.20
2015,03,08,14,25,12.30
2015,03,08,14,26,12.30
2015,03,08,14,27,12.30
2015,03,08,14,28,12.40
2015,03,08,14,29,12.40
2015,03,08,14,30,12.50
2015,03,08,14,31,12.50
2015,03,08,14,32,12.50
2015,03,08,14,33,12.40
2015,03,08,14,34,12.50
2015,03,08,14,35,12.50
2015,03,08,14,36,12.40
2015,03,08,14,37,12.30
2015,03,08,14,38,12.30
2015,03,08,14,39,12.30
2015,03,08,14,40,12.30
2015,03,08,14,41,12.30
2015,03,08,14,42,12.30
2015,03,08,14,43,12.30
2015,03,08,14,44,12.30
2015,03,08,14,45,12.30
2015,03,08,14,46,12.30
2015,03,08,14,47,12.30
2015,03,08,14,48,12.30
2015,03,08,14,49,12.30
2015,03,08,14,50,12.30
2015,03,08,14,51,12.30
2015,03,08,14,52,12.30
2015,03,08,14,53,12.30
2015,03,08,14,54,12.30
2015,03,08,14,55,12.30
2015,03,08,14,56,12.30
2015,03,08,14,57,12.30
2015,03,08,14,58,12.30
2015,03,08,14,59,12.30
2015,03,08,15,00,12.40
2015,03,08,15,01,12.40
2015,03,08,15,02,12.50
2015,03,08,15,03,12.50
2015,03,08,15,04,12.50
2015,03,08,15,05,12.60
2015,03,08,15,06,12.60
2015,03,08,15,07,12.60
2015,03,08,15,08,12.70
2015,03,08,15,09,12.70
2015,03,08,15,10,12.70
2015,03,08,15,11,12.70
2015,03,08,15,12,12.60
2015,03,08,15,13,12.70
2015,03,08,15,14,12.70
2015,03,08,15,15,12.70
2015,03,08,15,16,12.70
2015,03,08,15,17,12.80
2015,03,08,15,18,12.90
2015,03,08,15,19,13.00
2015,03,08,15,20,13.10
2015,03,08,15,21,13.10
2015,03,08,15,22,13.20
2015,03,08,15,23,13.30
2015,03,08,15,24,13.40
2015,03,08,15,25,13.40
2015,03,08,15,26,13.40
2015,03,08,15,27,13.40
2015,03,08,15,28,13.40
2015,03,08,15,29,13.50
2015,03,08,15,30,13.50
2015,03,08,15,31,13.50
2015,03,08,15,32,13.50
2015,03,08,15,33,13.40
2015,03,08,15,34,13.50
2015,03,08,15,35,13.60
2015,03,08,15,36,13.70
2015,03,08,15,37,13.70
2015,03,08,15,38,13.80
2015,03,08,15,39,13.80
2015,03,08,15,40,13.80
2015,03,08,15,41,13.70
2015,03,08,15,42,13.70
2015,03,08,15,43,13.50
2015,03,08,15,44,13.40
2015,03,08,15,45,13.30
2015,03,08,15,46,13.20
2015,03,08,15,47,13.10
2015,03,08,15,48,13.00
2015,03,08,15,49,12.90
2015,03,08,15,50,12.80
2015,03,08,15,51,12.70
2015,03,08,15,52,12.70
2015,03,08,15,53,12.70
2015,03,08,15,54,12.70
2015,03,08,15,55,12.70
2015,03,08,15,56,12.70
2015,03,08,15,57,12.80
2015,03,08,15,58,12.90
2015,03,08,15,59,12.90
2015,03,08,16,00,12.90
2015,03,08,16,01,13.00
2015,03,08,16,02,13.00
2015,03,08,16,03,13.00
2015,03,08,16,04,13.00
2015,03,08,16,05,12.90
2015,03,08,16,06,12.90
2015,03,08,16,07,13.00
2015,03,08,16,08,13.00
2015,03,08,16,09,13.00
2015,03,08,16,10,13.00
2015,03,08,16,11,13.00
2015,03,08,16,12,12.90
2015,03,08,16,13,12.90
2015,03,08,16,14,12.80
2015,03,08,16,15,12.80
2015,03,08,16,16,12.80
2015,03,08,16,17,12.80
2015,03,08,16,18,12.80
2015,03,08,16,19,12.80
2015,03,08,16,20,12.80
2015,03,08,16,21,12.80
2015,03,08,16,22,12.80
2015,03,08,16,23,12.80
2015,03,08,16,24,12.80
2015,03,08,16,25,12.80
2015,03,08,16,26,12.80
2015,03,08,16,27,12.70
2015,03,08,16,28,12.70
2015,03,08,16,29,12.70
2015,03,08,16,30,12.80
2015,03,08,16,31,12.90
2015,03,08,16,32,12.90
2015,03,08,16,33,13.00
2015,03,08,16,34,13.00
2015,03,08,16,35,13.10
2015,03,08,16,36,13.10
2015,03,08,16,37,13.10
2015,03,08,16,38,13.10
2015,03,08,16,39,13.10
2015,03,08,16,40,13.10
2015,03,08,16,41,13.10
2015,03,08,16,42,13.10
2015,03,08,16,43,13.10
2015,03,08,16,44,13.20
2015,03,08,16,45,13.20
2015,03,08,16,46,13.10
2015,03,08,16,47,13.10
2015,03,08,16,48,13.10
2015,03,08,16,49,13.10
2015,03,08,16,50,13.00
2015,03,08,16,51,13.00
2015,03,08,16,52,13.00
2015,03,08,16,53,13.00
2015,03,08,16,54,13.00
2015,03,08,16,55,13.00
2015,03,08,16,56,12.90
2015,03,08,16,57,12.90
2015,03,08,16,58,12.90
2015,03,08,16,59,12.90
2015,03,08,17,00,12.90
2015,03,08,17,01,12.90
2015,03,08,17,02,12.90
2015,03,08,17,03,12.90
2015,03,08,17,04,12.90
2015,03,08,17,05,12.90
2015,03,08,17,06,12.90
2015,03,08,17,07,12.90
2015,03,08,17,08,12.90
2015,03,08,17,09,12.90
2015,03,08,17,10,12.90
2015,03,08,17,11,13.00
2015,03,08,17,12,13.00
2015,03,08,17,13,13.00
2015,03,08,17,14,13.00
2015,03,08,17,15,13.00
2015,03,08,17,16,13.00
2015,03,08,17,17,13.00
2015,03,08,17,18,13.00
2015,03,08,17,19,12.90
2015,03,08,17,20,12.90
2015,03,08,17,21,12.90
2015,03,08,17,22,12.90
2015,03,08,17,23,12.90
2015,03,08,17,24,12.90
2015,03,08,17,25,12.90
2015,03,08,17,26,12.90
2015,03,08,17,27,12.90
2015,03,08,17,28,12.90
2015,03,08,17,29,12.80
2015,03,08,17,30,12.90
2015,03,08,17,31,12.90
2015,03,08,17,32,13.00
2015,03,08,17,33,13.00
2015,03,08,17,34,13.10
2015,03,08,17,35,13.10
2015,03,08,17,36,13.10
2015,03,08,17,37,13.20
2015,03,08,17,38,13.20
2015,03,08,17,39,13.20
2015,03,08,17,40,13.20
2015,03,08,17,41,13.20
2015,03,08,17,42,13.20
2015,03,08,17,43,13.20
2015,03,08,17,44,13.20
2015,03,08,17,45,13.30
2015,03,08,17,46,13.20
2015,03,08,17,47,13.20
2015,03,08,17,48,13.20
2015,03,08,17,49,13.20
2015,03,08,17,50,13.10
2015,03,08,17,51,13.10
2015,03,08,17,52,13.10
2015,03,08,17,53,13.10
2015,03,08,17,54,13.10
2015,03,08,17,55,13.10
2015,03,08,17,56,13.00
2015,03,08,17,57,13.00
2015,03,08,17,58,13.00
2015,03,08,17,59,12.90
2015,03,08,18,00,12.90
2015,03,08,18,01,12.80
2015,03,08,18,02,12.80
2015,03,08,18,03,12.80
2015,03,08,18,04,12.80
2015,03,08,18,05,12.80
2015,03,08,18,06,12.80
2015,03,08,18,07,12.80
2015,03,08,18,08,12.80
2015,03,08,18,09,12.80
2015,03,08,18,10,12.80
2015,03,08,18,11,12.80
2015,03,08,18,12,12.80
2015,03,08,18,13,12.80
2015,03,08,18,14,12.80
2015,03,08,18,15,12.80
2015,03,08,18,16,12.80
2015,03,08,18,17,12.80
2015,03,08,18,18,12.80
2015,03,08,18,19,12.80
2015,03,08,18,20,12.70
2015,03,08,18,21,12.70
2015,03,08,18,22,12.60
2015,03,08,18,23,12.60
2015,03,08,18,24,12.60
2015,03,08,18,25,12.50
2015,03,08,18,26,12.50
2015,03,08,18,27,12.40
2015,03,08,18,28,12.40
2015,03,08,18,29,12.40
2015,03,08,18,30,12.40
2015,03,08,18,31,12.30
2015,03,08,18,32,12.30
2015,03,08,18,33,12.30
2015,03,08,18,34,12.30
2015,03,08,18,35,12.30
2015,03,08,18,36,12.30
2015,03,08,18,37,12.30
2015,03,08,18,38,12.30
2015,03,08,18,39,12.30
2015,03,08,18,40,12.30
2015,03,08,18,41,12.20
2015,03,08,18,42,12.20
2015,03,08,18,43,12.20
2015,03,08,18,44,12.10
2015,03,08,18,45,12.10
2015,03,08,18,46,12.00
2015,03,08,18,47,12.00
2015,03,08,18,48,11.90
2015,03,08,18,49,11.90